Location: Ecklingerode
(51.5036°N, 10.3122°E)
Time: 13:40:23
(UTC+00:00)

SAR-Lupe-4 - Pass Details

Date: 29 October 2020
Orbit: 481 x 484 km, 98.2° (Epoch: 22 November)

Event Time Altitude Azimuth Distance (km) Brightness Sun altitude
Rises 17:02:45 0° 19° (NNE) 2,558 7.0 -10.8°
Reaches altitude 10° 17:04:53 10° 25° (NNE) 1,673 6.0 -11.1°
Maximum altitude 17:08:22 47° 101° (E) 651 3.8 -11.6°
Drops below altitude 10° 17:11:49 10° 176° (S) 1,658 6.3 -12.2°
Sets 17:13:55 0° 182° (S) 2,533 7.3 -12.5°
